weather.gov     
National Weather Service

Weather Roundup
NWS Homepage
This page is being discontinued on March 12, 2014.
The same data is available at this site. Please update your bookmarks.
Thank you, and we apologize for the inconvenience.
Please send an email to SR-SRH.Webmaster@noaa.gov with any concerns.


Current Version
Previous Version:    01  02  03  04  05  06  07  08  09  10  11  12  13  14  15  16  17  18  19  20  21  22  23  24  25  26  27  28  29  30  
   31  32  33  34  35  36  37  38  39  40  41  42  43  44  45  46  47  48  49  50  51  52  53  54  55  56  57  58  59  60  
[Printable]
147
NZUS93 KARX 250959
HRRWXR

CURRENT HOURLY OBSERVATIONS ACROSS
MUCH OF THE UPPER MISSISSIPPI VALLEY
NATIONAL WEATHER SERVICE LA CROSSE WI
500 AM CDT SAT OCT 25 2014


...SOUTHEAST MINNESOTA...


CITY           SKY/WX    TMP DP  RH WIND       PRES   REMARKS
ROCHESTER      CLEAR     50  42  74 NW8       29.97S
ROCHESTER/MAYO FAIR      54  40  60 W9        29.96S
WINONA         CLEAR     48  46  93 NW3       29.94R
AUSTIN         CLEAR     48  41  76 NW6       29.98S
ALBERT LEA     CLEAR     48  41  76 W5        30.00R
DODGE CENTER   CLEAR     48  43  81 W9        29.98S
PRESTON        CLEAR     48  43  80 NW8       29.96S
OWATONNA       CLEAR     45  39  81 CALM      29.99R
FARIBAULT      CLEAR     48  39  71 W5        29.99R
$$

...ELSEWHERE IN MINNESOTA...


CITY           SKY/WX    TMP DP  RH WIND       PRES   REMARKS
MINNEAPOLIS    PTCLDY    56  35  45 NW10      29.96R
INTNL FALLS    CLEAR     44  33  65 W9        29.81R
DULUTH         CLEAR     51  33  50 W16       29.83R
RED WING       PTCLDY    41  39  93 N3        29.95R FOG
REDWOOD FALLS  MOCLDY    56  36  47 NW12      30.03R
MANKATO        PTCLDY    52  37  58 NW10      30.00R
WORTHINGTON    MOCLDY    52  37  58 NW5       30.07R
FAIRMONT       MOCLDY    55   0  10 NW9       30.02R
$$

...SOUTHWEST WISCONSIN...


CITY           SKY/WX    TMP DP  RH WIND       PRES   REMARKS
LA CROSSE      FOG       48  46  93 CALM      29.92R VSB 1/2
PRAIRIE DU CHI CLEAR     54  51  91 W3        29.93S
BOSCOBEL       FOG       56  55  97 SW3       29.93R VSB 1/4
LONE ROCK      NOT AVBL
PLATTEVILLE    MOCLDY    55  55  97 CALM      29.94S
FORT MC COY    FOG       47  47  99 CALM      29.92R VSB 1/4
VIROQUA        FAIR      53  53 100 W5        29.93R
WIS DELLS      CLEAR     55  51  89 W6        29.89R FOG
$$

...ELSEWHERE IN WISCONSIN...


CITY           SKY/WX    TMP DP  RH WIND       PRES   REMARKS
MILWAUKEE      MOCLDY    57  53  86 W12G20    29.86F
MADISON        CLEAR     57  54  89 VRB7      29.88S FOG
GREEN BAY      PTCLDY    55  53  93 W9        29.81R FOG
EAU CLAIRE     NOT AVBL
BLACK RVR FLS  FAIR      52  50  93 W5        29.90S
MEDFORD        CLEAR     49  46  91 W7        29.86R
WAUSAU         CLEAR     52  49  89 W9        29.83R
WIS RAPIDS     CLEAR     52  50  93 W7        29.88R
MARSHFIELD     CLEAR     50  47  89 W9        29.87R
RICE LAKE      CLEAR     47  38  70 W6        29.91R
$$

...NORTHEAST IOWA...


CITY           SKY/WX    TMP DP  RH WIND       PRES   REMARKS
DECORAH        CLEAR     52  48  87 W5        29.95R
MASON CITY     CLEAR     47  40  76 W6        30.01S
CHARLES CITY   CLEAR     46  45  93 W6        29.98S
OELWEIN        FAIR      48  48 100 W7        29.97S FOG
$$

...ELSEWHERE IN IOWA...


CITY           SKY/WX    TMP DP  RH WIND       PRES   REMARKS
DES MOINES     CLEAR     52  49  89 NW5       30.00R
IOWA CITY      FOG       49  49 100 CALM      29.97S VSB 1/4
FORT DODGE     PTCLDY    50  41  71 N5        30.03R
$$

...NORTHERN ILLINOIS...


CITY           SKY/WX    TMP DP  RH WIND       PRES   REMARKS
CHICAGO-OHARE  CLOUDY    57  54  89 W13       29.90S
CHICAGO-MIDWAY CLOUDY    58  54  86 W6        29.90F
MOLINE         FOG       56  55  97 W7        29.94S VSB 1/4
ROCKFORD       MOCLDY    57  54  89 W8        29.94R FOG
PEORIA         MOCLDY    53  49  86 CALM      29.96S
$$

NOTE: "FAIR" INDICATES FEW OR NO CLOUDS BELOW 12,000 FEET WITH NO
SIGNIFICANT WEATHER AND/OR OBSTRUCTIONS TO VISIBILITY. WIND
SPEEDS ARE IN MILES-PER-HOUR.




U.S. Dept. of Commerce
NOAA National Weather Service
1325 East West Highway
Silver Spring, MD 20910
E-mail: w-nws.webmaster@noaa.gov
Page last modified: May 16, 2007
NATIONAL WEATHER SERVICE: for Safety, for Work, for Fun - FOR LIFE